When you browse on this site, cookies collect data to enhance your experience and personalize the content and advertising you see.
Visit our Privacy Policy to learn more. By continuing to use the site, you agree to this use of cookies and data.

Stündliche Wetter Bolshie Ermaki

Heute, 26 September, Samstag

Zeit Temperatur Niederschläge Wind Luftdruck Luftfeuchtigkeit
00:00 +12°C° 0 mm 3 m/S 743 mmHg 77%
01:00 +12°C° 0 mm 3 m/S 743 mmHg 76%
02:00 +12°C° 0 mm 2 m/S 743 mmHg 75%
03:00 +11°C° 0 mm 3 m/S 743 mmHg 76%
04:00 +11°C° 0 mm 3 m/S 743 mmHg 76%
05:00 +11°C° 0 mm 3 m/S 743 mmHg 77%
06:00 +12°C° 0 mm 3 m/S 743 mmHg 74%
07:00 +13°C° 0 mm 3 m/S 743 mmHg 70%
08:00 +14°C° 0 mm 4 m/S 743 mmHg 67%
09:00 +15°C° 0 mm 4 m/S 743 mmHg 63%
10:00 +18°C° 0 mm 4 m/S 743 mmHg 58%
11:00 +20°C° 0 mm 5 m/S 744 mmHg 54%
12:00 +20°C° 0 mm 5 m/S 744 mmHg 53%
13:00 +21°C° 0 mm 5 m/S 743 mmHg 53%
14:00 +21°C° 0 mm 5 m/S 743 mmHg 52%
15:00 +20°C° 0 mm 4 m/S 743 mmHg 57%
16:00 +19°C° 0 mm 4 m/S 743 mmHg 62%
17:00 +17°C° 0 mm 3 m/S 743 mmHg 67%
18:00 +17°C° 0 mm 3 m/S 743 mmHg 68%
19:00 +16°C° 0 mm 3 m/S 744 mmHg 69%
20:00 +14°C° 0 mm 4 m/S 744 mmHg 70%
21:00 +14°C° 0 mm 3 m/S 744 mmHg 69%
22:00 +13°C° 0 mm 3 m/S 744 mmHg 68%
23:00 +13°C° 0 mm 3 m/S 744 mmHg 68%

Morgen, 27 September, Sonntag

Zeit Temperatur Niederschläge Wind Luftdruck Luftfeuchtigkeit
00:00 +13°C° 0 mm 3 m/S 744 mmHg 68%
01:00 +13°C° 0 mm 3 m/S 744 mmHg 67%
02:00 +12°C° 0 mm 3 m/S 744 mmHg 67%
03:00 +12°C° 0 mm 4 m/S 744 mmHg 66%
04:00 +12°C° 0 mm 4 m/S 744 mmHg 65%
05:00 +12°C° 0 mm 4 m/S 744 mmHg 64%
06:00 +13°C° 0 mm 4 m/S 745 mmHg 61%
07:00 +13°C° 0 mm 4 m/S 745 mmHg 58%
08:00 +14°C° 0 mm 5 m/S 745 mmHg 55%
09:00 +15°C° 0 mm 5 m/S 745 mmHg 53%
10:00 +16°C° 0 mm 5 m/S 745 mmHg 51%
11:00 +17°C° 0 mm 5 m/S 745 mmHg 49%
12:00 +17°C° 0 mm 5 m/S 745 mmHg 49%
13:00 +17°C° 0 mm 6 m/S 745 mmHg 49%
14:00 +19°C° 0 mm 6 m/S 745 mmHg 49%
15:00 +16°C° 0 mm 5 m/S 745 mmHg 51%
16:00 +15°C° 0 mm 5 m/S 745 mmHg 54%
17:00 +14°C° 0 mm 5 m/S 745 mmHg 56%
18:00 +14°C° 0 mm 4 m/S 745 mmHg 56%
19:00 +14°C° 0 mm 4 m/S 745 mmHg 56%
20:00 +14°C° 0 mm 4 m/S 745 mmHg 56%
21:00 +14°C° 0 mm 4 m/S 745 mmHg 60%
22:00 +13°C° 0 mm 4 m/S 745 mmHg 64%
23:00 +13°C° 0 mm 4 m/S 745 mmHg 67%

übermorgen, 28 September, Montag

Zeit Temperatur Niederschläge Wind Luftdruck Luftfeuchtigkeit
00:00 +13°C° 0.4 mm 4 m/S 745 mmHg 74%
01:00 +12°C° 0.4 mm 4 m/S 745 mmHg 80%
02:00 +12°C° 0.4 mm 5 m/S 744 mmHg 87%
03:00 +10°C° 1.3 mm 5 m/S 744 mmHg 88%
04:00 +10°C° 1.3 mm 5 m/S 745 mmHg 90%
05:00 +10°C° 1.3 mm 5 m/S 745 mmHg 91%
06:00 +10°C° 0.7 mm 5 m/S 745 mmHg 92%
07:00 +10°C° 0.7 mm 5 m/S 745 mmHg 92%
08:00 +11°C° 0.7 mm 4 m/S 745 mmHg 92%
09:00 +12°C° 0 mm 4 m/S 745 mmHg 88%
10:00 +13°C° 0 mm 4 m/S 746 mmHg 84%
11:00 +15°C° 0 mm 4 m/S 746 mmHg 80%
12:00 +16°C° 0 mm 3 m/S 746 mmHg 80%
13:00 +16°C° 0 mm 3 m/S 746 mmHg 79%
14:00 +17°C° 0 mm 2 m/S 746 mmHg 79%
15:00 +16°C° 0 mm 2 m/S 747 mmHg 81%
16:00 +15°C° 0 mm 2 m/S 747 mmHg 83%
17:00 +15°C° 0 mm 1 m/S 747 mmHg 85%
18:00 +14°C° 0 mm 1 m/S 747 mmHg 87%
19:00 +13°C° 0 mm 1 m/S 747 mmHg 89%
20:00 +12°C° 0 mm 1 m/S 748 mmHg 92%
21:00 +12°C° 0 mm 1 m/S 748 mmHg 92%
22:00 +12°C° 0 mm 1 m/S 748 mmHg 92%
23:00 +11°C° 0 mm 0 m/S 748 mmHg 93%

29 September, Dienstag

Zeit Temperatur Niederschläge Wind Luftdruck Luftfeuchtigkeit
00:00 +12°C° 0 mm 1 m/S 748 mmHg 94%
01:00 +12°C° 0 mm 1 m/S 748 mmHg 94%
02:00 +12°C° 0 mm 1 m/S 748 mmHg 95%
03:00 +12°C° 0 mm 2 m/S 747 mmHg 95%
04:00 +10°C° 0 mm 2 m/S 747 mmHg 95%
05:00 +10°C° 0 mm 2 m/S 747 mmHg 96%
06:00 +12°C° 0 mm 2 m/S 747 mmHg 89%
07:00 +13°C° 0 mm 2 m/S 747 mmHg 82%
08:00 +12°C° 0 mm 3 m/S 746 mmHg 75%
09:00 +13°C° 0 mm 3 m/S 746 mmHg 71%
10:00 +14°C° 0 mm 3 m/S 746 mmHg 66%
11:00 +14°C° 0 mm 3 m/S 746 mmHg 62%
12:00 +16°C° 0 mm 3 m/S 746 mmHg 61%
13:00 +15°C° 0 mm 4 m/S 746 mmHg 61%
14:00 +17°C° 0 mm 4 m/S 746 mmHg 60%
15:00 +15°C° 0 mm 4 m/S 746 mmHg 62%
16:00 +14°C° 0 mm 3 m/S 745 mmHg 64%
17:00 +13°C° 0 mm 3 m/S 745 mmHg 66%
18:00 +13°C° 0 mm 3 m/S 745 mmHg 66%
19:00 +12°C° 0 mm 3 m/S 745 mmHg 67%
20:00 +11°C° 0 mm 3 m/S 745 mmHg 67%
21:00 +11°C° 0 mm 3 m/S 745 mmHg 67%
22:00 +11°C° 0 mm 3 m/S 745 mmHg 68%
23:00 +10°C° 0 mm 3 m/S 745 mmHg 68%

30 September, Mittwoch

Zeit Temperatur Niederschläge Wind Luftdruck Luftfeuchtigkeit
00:00 +10°C° 0 mm 3 m/S 745 mmHg 68%
01:00 +11°C° 0 mm 3 m/S 745 mmHg 69%
02:00 +11°C° 0 mm 3 m/S 745 mmHg 69%
03:00 +10°C° 0 mm 3 m/S 745 mmHg 67%
04:00 +10°C° 0 mm 3 m/S 745 mmHg 65%
05:00 +9°C° 0 mm 3 m/S 745 mmHg 64%
06:00 +10°C° 0 mm 3 m/S 745 mmHg 61%
07:00 +10°C° 0 mm 4 m/S 744 mmHg 58%
08:00 +11°C° 0 mm 4 m/S 744 mmHg 55%
09:00 +12°C° 0 mm 4 m/S 744 mmHg 53%
10:00 +13°C° 0 mm 4 m/S 744 mmHg 52%
11:00 +14°C° 0 mm 5 m/S 745 mmHg 50%
12:00 +14°C° 0 mm 4 m/S 744 mmHg 51%
13:00 +14°C° 0 mm 4 m/S 744 mmHg 52%
14:00 +14°C° 0 mm 4 m/S 744 mmHg 52%
15:00 +14°C° 0 mm 4 m/S 744 mmHg 52%
16:00 +13°C° 0 mm 4 m/S 744 mmHg 53%
17:00 +13°C° 0 mm 4 m/S 744 mmHg 53%
18:00 +13°C° 0 mm 4 m/S 744 mmHg 52%
19:00 +13°C° 0 mm 4 m/S 744 mmHg 52%
20:00 +13°C° 0 mm 4 m/S 744 mmHg 52%
21:00 +13°C° 0 mm 4 m/S 744 mmHg 52%
22:00 +12°C° 0 mm 4 m/S 744 mmHg 53%
23:00 +12°C° 0 mm 4 m/S 744 mmHg 53%

1 Oktober, Donnerstag

Zeit Temperatur Niederschläge Wind Luftdruck Luftfeuchtigkeit
00:00 +12°C° 0 mm 4 m/S 744 mmHg 56%
01:00 +11°C° 0 mm 4 m/S 744 mmHg 59%
02:00 +11°C° 0 mm 4 m/S 744 mmHg 61%
03:00 +11°C° 0 mm 4 m/S 744 mmHg 60%
04:00 +11°C° 0 mm 4 m/S 744 mmHg 59%
05:00 +11°C° 0 mm 4 m/S 744 mmHg 58%
06:00 +10°C° 0 mm 5 m/S 744 mmHg 57%
07:00 +12°C° 0 mm 5 m/S 744 mmHg 56%
08:00 +12°C° 0 mm 5 m/S 744 mmHg 55%
09:00 +13°C° 0 mm 6 m/S 744 mmHg 53%
10:00 +14°C° 0 mm 6 m/S 744 mmHg 51%
11:00 +15°C° 0 mm 6 m/S 744 mmHg 50%
12:00 +15°C° 0 mm 6 m/S 744 mmHg 49%
13:00 +16°C° 0 mm 6 m/S 744 mmHg 49%
14:00 +16°C° 0 mm 6 m/S 744 mmHg 48%
15:00 +15°C° 0 mm 5 m/S 744 mmHg 51%
16:00 +15°C° 0 mm 4 m/S 744 mmHg 54%
17:00 +14°C° 0 mm 4 m/S 744 mmHg 57%
18:00 +13°C° 0 mm 4 m/S 745 mmHg 56%
19:00 +13°C° 0 mm 4 m/S 745 mmHg 55%
20:00 +13°C° 0 mm 4 m/S 745 mmHg 55%
21:00 +13°C° 0 mm 4 m/S 745 mmHg 55%
22:00 +13°C° 0 mm 4 m/S 746 mmHg 56%
23:00 +12°C° 0 mm 4 m/S 746 mmHg 56%
Mehr zeigen